Hourly Data Report for October 03, 2017

All times are specified in Local Standard Time (LST). Add 1 hour to adjust for Daylight Saving Time where and when it is observed.

PORTAGE SOUTHPORT
MANITOBA

49°54'11.300" N
98°17'02.900" W
272.70 m
5012324
71851
WPG

Download Data

Hourly Data (October 2017)
Hourly Data Report for October 3, 2017
Temp Definition
°C
Dew Point Temp Definition
°C
Rel Hum Definition
%
Wind Dir Definition
10's deg

Wind Spd Definition
km/h
Visibility Definition
km
Stn Press Definition
kPa
Hmdx Definition


Wind Chill Definition


Weather Definition


TIME
00:00 5.5 2.0 78 18 7   98.01     LegendNANA
01:00 3.1 2.1 93   0   98.04     LegendNANA
02:00 6.9 2.8 75 21 10   98.05     LegendNANA
03:00 6.2 2.5 77 20 11   98.11     LegendNANA
04:00 6.0 2.4 78 20 10   98.12     LegendNANA
05:00 6.0 2.2 77 21 11   98.17     LegendNANA
06:00 5.7 1.9 77 22 11   98.20     LegendNANA
07:00 5.9 2.1 77 23 11   98.29     LegendNANA
08:00 6.0 2.3 77 26 3   98.36     LegendNANA
09:00 6.3 2.6 77 24 3   98.40     LegendNANA
10:00 7.4 2.6 72 21 6   98.42     LegendNANA
11:00 11.7 3.2 56 20 8   98.46     LegendNANA
12:00 11.3 2.1 53 22 8   98.52     LegendNANA
13:00 12.4 0.9 45 21 8   98.51     LegendNANA
14:00 12.3 1.4 47 24 7   98.51     LegendNANA
15:00 13.7 1.6 44 20 12   98.54     LegendNANA
16:00 12.9 1.5 46 23 14   98.58     LegendNANA
17:00 12.0 1.6 49 22 11   98.65     LegendNANA
18:00 10.2 1.5 55 23 6   98.68     LegendNANA
19:00 9.8 2.2 59 23 5   98.73     LegendNANA
20:00 9.4 2.0 60 28 7   98.79     LegendNANA
21:00 8.5 1.8 63 27 7   98.79     LegendNANA
22:00 7.4 1.1 64 27 10   98.79     LegendNANA
23:00 6.4 0.9 68 23 9   98.79     LegendNANA

Notes on Data Quality.

Legend

  • E = Estimated
  • M = Missing
  • NA = Not Available
  • ‡ = Partner data that is not subject to review by the National Climate Archives
Date modified: